Date,TemperatureHighF,TemperatureAvgF,TemperatureLowF,DewpointHighF,DewpointAvgF,DewpointLowF,HumidityHigh,HumidityAvg,HumidityLow,PressureMaxIn,PressureMinIn,WindSpeedMaxMPH,WindSpeedAvgMPH,GustSpeedMaxMPH,PrecipitationSumIn
2013-4-1,91.4,76.8,64.6,74.4,63.9,55.6,99,69,32,29.80,29.68,9,2,17,0.00
2013-4-2,70.5,67.7,66.0,65.5,64.8,63.1,97,91,82,29.78,29.74,2,0,4,0.00
2013-4-3,91.0,76.4,-3.6,73.0,67.0,-46.7,99,75,10,29.82,29.73,103,3,103,0.00
2013-4-4,91.6,75.2,-12.6,73.9,69.7,-16.1,99,85,51,29.80,29.65,29,3,29,0.33
2013-4-5,116.8,68.4,-3.1,99.9,65.1,-8.4,99,92,10,29.74,29.56,97,3,100,0.25
2013-4-6,80.1,69.1,45.3,65.8,60.6,38.2,98,77,49,29.84,29.66,11,3,17,0.00
2013-4-7,86.5,73.8,62.4,65.8,61.5,-33.4,93,67,45,29.89,29.78,12,2,51,0.00
2013-4-8,87.6,73.0,58.5,71.0,61.4,15.6,99,72,10,29.89,29.80,8,1,49,0.33
2013-4-9,88.0,75.4,64.8,71.5,66.3,63.1,99,75,47,29.91,29.80,8,2,14,0.00
2013-4-10,91.8,78.6,68.2,73.7,69.9,66.3,96,76,48,29.86,29.74,10,3,20,0.00
2013-4-11,88.5,80.2,73.9,73.9,72.2,50.4,91,78,58,29.77,29.64,13,6,21,0.00
2013-4-12,77.4,76.7,76.1,74.7,74.3,73.7,94,92,91,29.67,29.64,8,3,17,0.00
2013-4-13,94.8,77.9,71.4,79.8,74.0,71.1,99,89,56,30.37,30.31,11,1,20,0.54
2013-4-14,91.9,84.2,72.0,79.6,73.9,70.4,99,73,53,30.42,29.64,10,4,16,0.54
2013-4-15,99.1,76.2,70.0,77.2,71.4,15.4,99,88,10,29.81,29.67,13,2,20,0.65
2013-4-16,96.1,77.0,68.9,78.3,71.6,30.8,99,85,10,29.88,29.77,8,2,14,0.19
2013-4-17,86.7,77.3,68.5,72.0,67.3,59.5,99,73,43,29.87,29.77,8,2,13,0.00
2013-4-18,92.7,80.0,68.7,77.6,70.6,66.0,99,75,49,29.81,29.72,11,3,17,0.00
2013-4-19,92.1,82.4,75.2,74.7,71.9,35.5,91,73,21,29.79,29.70,103,6,103,0.00
2013-4-20,97.2,79.4,72.0,77.7,72.2,64.7,96,81,38,29.84,29.72,9,3,16,0.00
2013-4-21,92.1,78.4,70.3,75.9,71.7,68.2,99,82,54,29.84,29.73,10,2,17,0.05
2013-4-22,90.7,76.2,70.5,73.1,70.3,66.7,99,84,49,29.80,29.69,11,2,15,0.05
2013-4-23,83.8,74.9,-3.6,70.6,64.7,-3.7,99,73,51,29.85,29.70,11,4,50,0.00
2013-4-24,90.3,76.9,63.3,67.9,62.3,58.8,93,63,40,29.89,29.78,24,2,24,0.00
2013-4-25,87.6,76.4,62.8,69.0,61.7,56.3,98,63,39,29.96,29.83,8,2,13,0.00
2013-4-26,84.9,74.5,62.1,67.7,63.5,60.3,99,71,47,29.98,29.87,10,2,16,0.00
2013-4-27,87.3,77.4,65.1,67.0,63.4,56.6,93,64,39,29.96,29.84,8,2,15,0.00
2013-4-28,88.9,78.5,70.5,64.0,61.2,54.7,77,58,35,29.88,29.74,10,2,17,0.00
2013-4-29,91.6,77.7,65.8,71.9,67.3,16.7,96,73,44,29.78,29.68,11,3,17,0.00
2013-4-30,95.4,75.5,68.9,77.0,70.9,68.6,99,87,45,29.75,29.67,11,1,103,0.61